,,,PA_Meas_PMT16A,,PR_Meas_QMR101_102,,RH_Meas_QMH101,,SR_Meas_QMS101,,TA_Meas_QMH101,,GenWind,,GenWind,
date,time,status,PA,status,PR,status,RH,status,SR,status,TA,status,DirAvg,status,SpdAvg,
2011-06-05, 00:00:04,VALID,1004.07,VALID,0,INVALID,163.723,VALID,0.100563,VALID,24.4025,VALID,360,VALID,0.203125,
2011-06-05, 00:01:04,VALID,1004.09,VALID,0,INVALID,163.708,VALID,0,VALID,24.3812,VALID,360,VALID,0.323438,
2011-06-05, 00:02:04,VALID,1004.09,VALID,0,INVALID,163.716,VALID,0,VALID,24.383,VALID,360,VALID,0.328125,
2011-06-05, 00:03:04,VALID,1004.09,VALID,0,INVALID,163.723,VALID,0,VALID,24.383,VALID,7,VALID,0.424219,
2011-06-05, 00:04:04,VALID,1004.08,VALID,0,INVALID,163.716,VALID,0,VALID,24.4414,VALID,8,VALID,0.500391,
2011-06-05, 00:05:04,VALID,1004.08,VALID,0,INVALID,163.678,VALID,0,VALID,24.4804,VALID,8,VALID,0.628516,
2011-06-05, 00:06:04,VALID,1004.07,VALID,0,INVALID,163.708,VALID,0,VALID,24.4998,VALID,17,VALID,0.816406,
2011-06-05, 00:07:04,VALID,1004.07,VALID,0,INVALID,163.716,VALID,0,VALID,24.5972,VALID,19,VALID,0.852344,
2011-06-05, 00:08:04,VALID,1004.09,VALID,0,INVALID,163.678,VALID,0,VALID,24.638,VALID,19,VALID,0.665625,
2011-06-05, 00:09:04,VALID,1004.12,VALID,0,INVALID,163.685,VALID,0,VALID,24.6166,VALID,19,VALID,0.226953,
2011-06-05, 00:10:04,VALID,1004.14,VALID,0,INVALID,163.693,VALID,0,VALID,24.599,VALID,19,VALID,0.146484,
2011-06-05, 00:11:04,VALID,1004.15,VALID,0,INVALID,163.716,VALID,0,VALID,24.5777,VALID,19,VALID,0.410156,
2011-06-05, 00:12:04,VALID,1004.18,VALID,0,INVALID,163.685,VALID,0,VALID,24.5777,VALID,19,VALID,0.181641,
2011-06-05, 00:13:04,VALID,1004.19,VALID,0,INVALID,163.701,VALID,0,VALID,24.5777,VALID,19,VALID,0.275,
2011-06-05, 00:14:04,VALID,1004.21,VALID,0,INVALID,163.678,VALID,0,VALID,24.6361,VALID,19,VALID,0.239844,
2011-06-05, 00:15:04,VALID,1004.2,VALID,0,INVALID,163.701,VALID,0,VALID,24.675,VALID,19,VALID,0.210938,
2011-06-05, 00:16:04,VALID,1004.22,VALID,0,INVALID,163.685,VALID,0,VALID,24.675,VALID,19,VALID,0,
2011-06-05, 00:17:04,VALID,1004.23,VALID,0,INVALID,163.708,VALID,0,VALID,24.6964,VALID,19,VALID,0,
2011-06-05, 00:18:04,VALID,1004.23,VALID,0,INVALID,163.708,VALID,0,VALID,24.7159,VALID,19,VALID,0.00390625,
2011-06-05, 00:19:04,VALID,1004.26,VALID,0,INVALID,163.678,VALID,0,VALID,24.714,VALID,22,VALID,0.348828,
2011-06-05, 00:20:04,VALID,1004.24,VALID,0,INVALID,163.67,VALID,0,VALID,24.7529,VALID,28,VALID,0.267969,
2011-06-05, 00:21:04,VALID,1004.28,VALID,0,INVALID,163.693,VALID,0,VALID,24.7937,VALID,28,VALID,0.241016,
2011-06-05, 00:22:04,VALID,1004.24,VALID,0,INVALID,163.678,VALID,0,VALID,24.7919,VALID,28,VALID,0.131641,
2011-06-05, 00:23:04,VALID,1004.22,VALID,0,INVALID,163.67,VALID,0,VALID,24.8113,VALID,28,VALID,0.103125,
2011-06-05, 00:24:04,VALID,1004.2,VALID,0,INVALID,163.678,VALID,0,VALID,24.79,VALID,28,VALID,0,
2011-06-05, 00:25:04,VALID,1004.18,VALID,0,INVALID,163.678,VALID,0,VALID,24.8327,VALID,28,VALID,0,
2011-06-05, 00:26:04,VALID,1004.17,VALID,0,INVALID,163.708,VALID,0.100563,VALID,24.8327,VALID,28,VALID,0,
2011-06-05, 00:27:04,VALID,1004.15,VALID,0,INVALID,163.662,VALID,0,VALID,24.7919,VALID,28,VALID,0,
2011-06-05, 00:28:04,VALID,1004.17,VALID,0,INVALID,163.678,VALID,0,VALID,24.7919,VALID,28,VALID,0,
2011-06-05, 00:29:04,VALID,1004.13,VALID,0,INVALID,163.708,VALID,0,VALID,24.8132,VALID,28,VALID,0,
2011-06-05, 00:30:04,VALID,1004.15,VALID,0,INVALID,163.647,VALID,0.100563,VALID,24.8327,VALID,28,VALID,0,
2011-06-05, 00:31:04,VALID,1004.17,VALID,0,INVALID,163.685,VALID,0,VALID,24.8113,VALID,28,VALID,0,
2011-06-05, 00:32:04,VALID,1004.16,VALID,0,INVALID,163.67,VALID,0,VALID,24.7919,VALID,28,VALID,0,
2011-06-05, 00:33:04,VALID,1004.17,VALID,0,INVALID,163.678,VALID,0,VALID,24.8113,VALID,28,VALID,0,
2011-06-05, 00:34:04,VALID,1004.13,VALID,0,INVALID,163.678,VALID,0,VALID,24.8308,VALID,28,VALID,0,
2011-06-05, 00:35:04,VALID,1004.14,VALID,0,INVALID,163.678,VALID,0,VALID,24.8308,VALID,28,VALID,0.0234375,
2011-06-05, 00:36:04,VALID,1004.13,VALID,0,INVALID,163.685,VALID,0,VALID,24.8522,VALID,28,VALID,0.280078,
2011-06-05, 00:37:04,VALID,1004.1,VALID,0,INVALID,163.685,VALID,0,VALID,24.8503,VALID,28,VALID,0.542969,
2011-06-05, 00:38:04,VALID,1004.06,VALID,0,INVALID,163.678,VALID,0,VALID,24.8697,VALID,28,VALID,0.572266,
2011-06-05, 00:39:04,VALID,1004.04,VALID,0,INVALID,163.685,VALID,0,VALID,24.9106,VALID,28,VALID,0.502344,
2011-06-05, 00:40:04,VALID,1003.99,VALID,0,INVALID,163.655,VALID,0,VALID,24.93,VALID,28,VALID,0.477734,
2011-06-05, 00:41:04,VALID,1004,VALID,0,INVALID,163.678,VALID,0,VALID,24.8697,VALID,28,VALID,0.437891,
2011-06-05, 00:42:04,VALID,1003.98,VALID,0,INVALID,163.67,VALID,0,VALID,24.8308,VALID,28,VALID,0.371484,
2011-06-05, 00:43:04,VALID,1003.94,VALID,0,INVALID,163.685,VALID,0,VALID,24.8327,VALID,28,VALID,0.333594,
2011-06-05, 00:44:04,VALID,1003.9,VALID,0,INVALID,163.685,VALID,0,VALID,24.8308,VALID,27,VALID,0.427344,
2011-06-05, 00:45:04,VALID,1003.84,VALID,0,INVALID,163.678,VALID,0,VALID,24.8327,VALID,22,VALID,0.482812,
2011-06-05, 00:46:04,VALID,1003.81,VALID,0,INVALID,163.693,VALID,0,VALID,24.8327,VALID,17,VALID,0.636719,
2011-06-05, 00:47:04,VALID,1003.77,VALID,0,INVALID,163.662,VALID,0,VALID,24.8327,VALID,17,VALID,0.472266,
2011-06-05, 00:48:04,VALID,1003.77,VALID,0,INVALID,163.678,VALID,0,VALID,24.8327,VALID,17,VALID,0.455469,
2011-06-05, 00:49:04,VALID,1003.78,VALID,0,INVALID,163.685,VALID,0,VALID,24.8308,VALID,17,VALID,0.453906,
2011-06-05, 00:50:04,VALID,1003.77,VALID,0,INVALID,163.685,VALID,0,VALID,24.8113,VALID,17,VALID,0.315625,
2011-06-05, 00:51:04,VALID,1003.8,VALID,0,INVALID,163.662,VALID,0,VALID,24.8132,VALID,17,VALID,0.280469,
2011-06-05, 00:52:04,VALID,1003.82,VALID,0,INVALID,163.693,VALID,0,VALID,24.8132,VALID,17,VALID,0.261328,
2011-06-05, 00:53:04,VALID,1003.79,VALID,0,INVALID,163.678,VALID,0,VALID,24.8132,VALID,17,VALID,0.177734,
2011-06-05, 00:54:04,VALID,1003.82,VALID,0,INVALID,163.67,VALID,0,VALID,24.8113,VALID,17,VALID,0.284375,
2011-06-05, 00:55:04,VALID,1003.79,VALID,0,INVALID,163.685,VALID,0,VALID,24.8716,VALID,17,VALID,0.44375,
2011-06-05, 00:56:04,VALID,1003.8,VALID,0,INVALID,163.678,VALID,0,VALID,24.8892,VALID,17,VALID,0.136328,
2011-06-05, 00:57:04,VALID,1003.79,VALID,0,INVALID,163.67,VALID,0,VALID,24.9106,VALID,17,VALID,0.281641,
2011-06-05, 00:58:04,VALID,1003.76,VALID,0,INVALID,163.655,VALID,0,VALID,24.93,VALID,17,VALID,0.116406,
2011-06-05, 00:59:04,VALID,1003.75,VALID,0,INVALID,163.685,VALID,0.100563,VALID,24.9476,VALID,17,VALID,0.155078,
2011-06-05, 01:00:04,VALID,1003.74,VALID,0,INVALID,163.67,VALID,0.100563,VALID,24.9476,VALID,17,VALID,0.186719,
2011-06-05, 01:01:04,VALID,1003.74,VALID,0,INVALID,163.678,VALID,0.100563,VALID,24.9476,VALID,17,VALID,0.324609,
2011-06-05, 01:02:04,VALID,1003.76,VALID,0,INVALID,163.662,VALID,0.100563,VALID,24.9476,VALID,17,VALID,0.209375,
2011-06-05, 01:03:04,VALID,1003.78,VALID,0,INVALID,163.662,VALID,0.100563,VALID,24.9263,VALID,17,VALID,0.0132813,
2011-06-05, 01:04:04,VALID,1003.79,VALID,0,INVALID,163.655,VALID,0.100563,VALID,24.9068,VALID,17,VALID,0.171484,
2011-06-05, 01:05:04,VALID,1003.8,VALID,0,INVALID,163.678,VALID,0.100563,VALID,24.9495,VALID,17,VALID,0.373437,
2011-06-05, 01:06:04,VALID,1003.78,VALID,0,INVALID,163.685,VALID,0.100563,VALID,24.9087,VALID,17,VALID,0.244922,
2011-06-05, 01:07:04,VALID,1003.77,VALID,0,INVALID,163.655,VALID,0.100563,VALID,24.8873,VALID,17,VALID,0.228125,
2011-06-05, 01:08:04,VALID,1003.78,VALID,0,INVALID,163.685,VALID,0.100563,VALID,24.8873,VALID,17,VALID,0.155859,
2011-06-05, 01:09:04,VALID,1003.76,VALID,0,INVALID,163.678,VALID,0.100563,VALID,24.9087,VALID,17,VALID,0.171094,
2011-06-05, 01:10:04,VALID,1003.73,VALID,0,INVALID,163.693,VALID,0.100563,VALID,24.8873,VALID,17,VALID,0.360547,
2011-06-05, 01:11:04,VALID,1003.68,VALID,0,INVALID,163.662,VALID,0.100563,VALID,24.8873,VALID,17,VALID,0.319141,
2011-06-05, 01:12:04,VALID,1003.65,VALID,0,INVALID,163.678,VALID,0.100563,VALID,24.8873,VALID,17,VALID,0.410937,
2011-06-05, 01:13:04,VALID,1003.63,VALID,0,INVALID,163.701,VALID,0.100563,VALID,24.9087,VALID,17,VALID,0.458594,
2011-06-05, 01:14:04,VALID,1003.59,VALID,0,INVALID,163.67,VALID,0,VALID,24.9106,VALID,17,VALID,0.539844,
2011-06-05, 01:15:04,VALID,1003.57,VALID,0,INVALID,163.662,VALID,0,VALID,24.8503,VALID,17,VALID,0.512109,
2011-06-05, 01:16:04,VALID,1003.57,VALID,0,INVALID,163.723,VALID,0,VALID,24.8308,VALID,16,VALID,0.423828,
2011-06-05, 01:17:04,VALID,1003.58,VALID,0,INVALID,163.67,VALID,0,VALID,24.8113,VALID,16,VALID,0.419141,
2011-06-05, 01:18:04,VALID,1003.54,VALID,0,INVALID,163.662,VALID,0,VALID,24.7919,VALID,16,VALID,0.256641,
2011-06-05, 01:19:04,VALID,1003.53,VALID,0,INVALID,163.693,VALID,0,VALID,24.7919,VALID,16,VALID,0.282813,
2011-06-05, 01:20:04,VALID,1003.52,VALID,0,INVALID,163.678,VALID,0,VALID,24.8132,VALID,16,VALID,0.0972656,
2011-06-05, 01:21:04,VALID,1003.5,VALID,0,INVALID,163.685,VALID,0,VALID,24.7937,VALID,16,VALID,0.225781,
2011-06-05, 01:22:04,VALID,1003.49,VALID,0,INVALID,163.67,VALID,0,VALID,24.7743,VALID,16,VALID,0.176563,
2011-06-05, 01:23:04,VALID,1003.44,VALID,0,INVALID,163.685,VALID,0,VALID,24.7743,VALID,16,VALID,0.273438,
2011-06-05, 01:24:04,VALID,1003.41,VALID,0,INVALID,163.701,VALID,0,VALID,24.7529,VALID,16,VALID,0.180469,
2011-06-05, 01:25:04,VALID,1003.41,VALID,0,INVALID,163.685,VALID,0,VALID,24.7743,VALID,16,VALID,0.418359,
2011-06-05, 01:26:04,VALID,1003.38,VALID,0,INVALID,163.678,VALID,0,VALID,24.7335,VALID,16,VALID,0.363672,
2011-06-05, 01:27:04,VALID,1003.37,VALID,0,INVALID,163.685,VALID,0,VALID,24.6945,VALID,16,VALID,0.465234,
2011-06-05, 01:28:04,VALID,1003.36,VALID,0,INVALID,163.685,VALID,0,VALID,24.6556,VALID,16,VALID,0.466016,
2011-06-05, 01:29:04,VALID,1003.35,VALID,0,INVALID,163.693,VALID,0,VALID,24.6166,VALID,16,VALID,0.324609,
2011-06-05, 01:30:04,VALID,1003.32,VALID,0,INVALID,163.708,VALID,0,VALID,24.6166,VALID,16,VALID,0.196094,
2011-06-05, 01:31:04,VALID,1003.28,VALID,0,INVALID,163.685,VALID,0,VALID,24.6166,VALID,16,VALID,0.0949219,
2011-06-05, 01:32:04,VALID,1003.26,VALID,0,INVALID,163.716,VALID,0,VALID,24.5972,VALID,16,VALID,0,
2011-06-05, 01:33:04,VALID,1003.26,VALID,0,INVALID,163.685,VALID,0,VALID,24.5972,VALID,16,VALID,0.264844,
2011-06-05, 01:34:04,VALID,1003.26,VALID,0,INVALID,163.716,VALID,0,VALID,24.6185,VALID,16,VALID,0.226563,
2011-06-05, 01:35:04,VALID,1003.22,VALID,0,INVALID,163.678,VALID,0,VALID,24.5972,VALID,16,VALID,0.09375,
2011-06-05, 01:36:04,VALID,1003.21,VALID,0,INVALID,163.701,VALID,0,VALID,24.5777,VALID,16,VALID,0.367578,
2011-06-05, 01:37:04,VALID,1003.22,VALID,0,INVALID,163.701,VALID,0,VALID,24.5582,VALID,16,VALID,0.344922,
2011-06-05, 01:38:04,VALID,1003.2,VALID,0,INVALID,163.693,VALID,0,VALID,24.5796,VALID,16,VALID,0.421094,
2011-06-05, 01:39:04,VALID,1003.18,VALID,0,INVALID,163.716,VALID,0,VALID,24.5582,VALID,16,VALID,0.419531,
2011-06-05, 01:40:04,VALID,1003.16,VALID,0,INVALID,163.701,VALID,0,VALID,24.5388,VALID,16,VALID,0.355859,
2011-06-05, 01:41:04,VALID,1003.15,VALID,0,INVALID,163.701,VALID,0,VALID,24.5406,VALID,16,VALID,0.418359,
2011-06-05, 01:42:04,VALID,1003.16,VALID,0,INVALID,163.693,VALID,0,VALID,24.5212,VALID,16,VALID,0.428906,
2011-06-05, 01:43:04,VALID,1003.18,VALID,0,INVALID,163.716,VALID,0,VALID,24.4804,VALID,16,VALID,0.472266,
2011-06-05, 01:44:04,VALID,1003.15,VALID,0,INVALID,163.701,VALID,0,VALID,24.5017,VALID,16,VALID,0.540625,
2011-06-05, 01:45:04,VALID,1003.17,VALID,0,INVALID,163.708,VALID,0,VALID,24.4804,VALID,16,VALID,0.483594,
2011-06-05, 01:46:04,VALID,1003.18,VALID,0,INVALID,163.716,VALID,0,VALID,24.4804,VALID,16,VALID,0.426172,
2011-06-05, 01:47:04,VALID,1003.19,VALID,0,INVALID,163.723,VALID,0,VALID,24.4804,VALID,16,VALID,0.396094,
2011-06-05, 01:48:04,VALID,1003.22,VALID,0,INVALID,163.716,VALID,0,VALID,24.5017,VALID,16,VALID,0.392969,
2011-06-05, 01:49:04,VALID,1003.22,VALID,0,INVALID,163.723,VALID,0,VALID,24.4804,VALID,16,VALID,0.376563,
2011-06-05, 01:50:04,VALID,1003.2,VALID,0,INVALID,163.701,VALID,0,VALID,24.4998,VALID,16,VALID,0.378125,
2011-06-05, 01:51:04,VALID,1003.22,VALID,0,INVALID,163.731,VALID,0,VALID,24.5017,VALID,16,VALID,0.307813,
2011-06-05, 01:52:04,VALID,1003.24,VALID,0,INVALID,163.723,VALID,0,VALID,24.4841,VALID,16,VALID,0.339453,
2011-06-05, 01:53:04,VALID,1003.21,VALID,0,INVALID,163.701,VALID,0,VALID,24.4841,VALID,16,VALID,0.3125,
2011-06-05, 01:54:04,VALID,1003.25,VALID,0,INVALID,163.731,VALID,0,VALID,24.422,VALID,16,VALID,0.257422,
2011-06-05, 01:55:04,VALID,1003.23,VALID,0,INVALID,163.708,VALID,0,VALID,24.4414,VALID,16,VALID,0.229687,
2011-06-05, 01:56:04,VALID,1003.27,VALID,0,INVALID,163.731,VALID,0,VALID,24.4609,VALID,16,VALID,0.290625,
2011-06-05, 01:57:04,VALID,1003.27,VALID,0,INVALID,163.716,VALID,0,VALID,24.4396,VALID,16,VALID,0.398047,
2011-06-05, 01:58:04,VALID,1003.3,VALID,0,INVALID,163.708,VALID,0,VALID,24.4414,VALID,16,VALID,0.342578,
2011-06-05, 01:59:04,VALID,1003.3,VALID,0,INVALID,163.708,VALID,0,VALID,24.4433,VALID,16,VALID,0.313672,
2011-06-05, 02:00:04,VALID,1003.26,VALID,0,INVALID,163.723,VALID,0,VALID,24.4628,VALID,16,VALID,0.470703,
2011-06-05, 02:01:04,VALID,1003.27,VALID,0,INVALID,163.693,VALID,0,VALID,24.422,VALID,16,VALID,0.450781,
2011-06-05, 02:02:04,VALID,1003.28,VALID,0,INVALID,163.693,VALID,0,VALID,24.422,VALID,16,VALID,0.4125,
2011-06-05, 02:03:04,VALID,1003.25,VALID,0,INVALID,163.701,VALID,0,VALID,24.4025,VALID,16,VALID,0.393359,
2011-06-05, 02:04:04,VALID,1003.25,VALID,0,INVALID,163.708,VALID,0,VALID,24.4025,VALID,16,VALID,0.534375,
2011-06-05, 02:05:04,VALID,1003.25,VALID,0,INVALID,163.716,VALID,0,VALID,24.383,VALID,1,VALID,0.43125,
2011-06-05, 02:06:04,VALID,1003.22,VALID,0,INVALID,163.716,VALID,0,VALID,24.3636,VALID,1,VALID,0.650391,
2011-06-05, 02:07:04,VALID,1003.26,VALID,0,INVALID,163.731,VALID,0,VALID,24.3849,VALID,1,VALID,0.390625,
2011-06-05, 02:08:04,VALID,1003.27,VALID,0,INVALID,163.716,VALID,0,VALID,24.3441,VALID,1,VALID,0.423438,
2011-06-05, 02:09:04,VALID,1003.25,VALID,0,INVALID,163.746,VALID,0,VALID,24.3246,VALID,1,VALID,0.444531,
2011-06-05, 02:10:04,VALID,1003.23,VALID,0,INVALID,163.739,VALID,0,VALID,24.3052,VALID,1,VALID,0.381641,
2011-06-05, 02:11:04,VALID,1003.25,VALID,0,INVALID,163.739,VALID,0,VALID,24.3052,VALID,1,VALID,0.440625,
2011-06-05, 02:12:04,VALID,1003.25,VALID,0,INVALID,163.739,VALID,0,VALID,24.3246,VALID,1,VALID,0.353125,
2011-06-05, 02:13:04,VALID,1003.23,VALID,0,INVALID,163.731,VALID,0,VALID,24.3441,VALID,1,VALID,0.394141,
2011-06-05, 02:14:04,VALID,1003.23,VALID,0,INVALID,163.723,VALID,0,VALID,24.3441,VALID,358,VALID,0.323438,
2011-06-05, 02:15:04,VALID,1003.25,VALID,0,INVALID,163.723,VALID,0,VALID,24.3654,VALID,358,VALID,0.453125,
2011-06-05, 02:16:04,VALID,1003.22,VALID,0,INVALID,163.693,VALID,0,VALID,24.3812,VALID,356,VALID,0.455859,
2011-06-05, 02:17:04,VALID,1003.2,VALID,0,INVALID,163.708,VALID,0,VALID,24.4822,VALID,339,VALID,0.219141,
2011-06-05, 02:18:04,VALID,1003.21,VALID,0,INVALID,163.716,VALID,0,VALID,24.4804,VALID,339,VALID,0.401172,
2011-06-05, 02:19:04,VALID,1003.2,VALID,0,INVALID,163.67,VALID,0,VALID,24.5388,VALID,14,VALID,0.502734,
2011-06-05, 02:20:04,VALID,1003.19,VALID,0,INVALID,163.701,VALID,0,VALID,24.6185,VALID,11,VALID,0.312891,
2011-06-05, 02:21:04,VALID,1003.17,VALID,0,INVALID,163.678,VALID,0,VALID,24.6556,VALID,344,VALID,0.390625,
2011-06-05, 02:22:04,VALID,1003.2,VALID,0,INVALID,163.67,VALID,0,VALID,24.714,VALID,340,VALID,0.0957031,
2011-06-05, 02:23:04,VALID,1003.2,VALID,0,INVALID,163.685,VALID,0,VALID,24.7724,VALID,340,VALID,0.121094,
2011-06-05, 02:24:04,VALID,1003.19,VALID,0,INVALID,163.678,VALID,0,VALID,24.7724,VALID,340,VALID,0.102734,
2011-06-05, 02:25:04,VALID,1003.18,VALID,0,INVALID,163.662,VALID,0,VALID,24.8132,VALID,340,VALID,0,
2011-06-05, 02:26:04,VALID,1003.23,VALID,0,INVALID,163.67,VALID,0,VALID,24.8327,VALID,340,VALID,0,
2011-06-05, 02:27:04,VALID,1003.22,VALID,0,INVALID,163.655,VALID,0,VALID,24.8308,VALID,340,VALID,0.0945313,
2011-06-05, 02:28:04,VALID,1003.24,VALID,0,INVALID,163.678,VALID,0,VALID,24.8308,VALID,340,VALID,0.373828,
2011-06-05, 02:29:04,VALID,1003.22,VALID,0,INVALID,163.685,VALID,0,VALID,24.8503,VALID,344,VALID,0.676953,
2011-06-05, 02:30:04,VALID,1003.27,VALID,0,INVALID,163.67,VALID,0,VALID,24.8522,VALID,345,VALID,0.555469,
2011-06-05, 02:31:04,VALID,1003.28,VALID,0,INVALID,163.685,VALID,0,VALID,24.7919,VALID,345,VALID,0.582812,
2011-06-05, 02:32:04,VALID,1003.26,VALID,0,INVALID,163.678,VALID,0,VALID,24.7548,VALID,345,VALID,0.514453,
2011-06-05, 02:33:04,VALID,1003.26,VALID,0,INVALID,163.708,VALID,0,VALID,24.7372,VALID,345,VALID,0.55,
2011-06-05, 02:34:04,VALID,1003.24,VALID,0,INVALID,163.693,VALID,0,VALID,24.6574,VALID,345,VALID,0.571094,
2011-06-05, 02:35:04,VALID,1003.25,VALID,0,INVALID,163.693,VALID,0,VALID,24.5972,VALID,346,VALID,0.558203,
2011-06-05, 02:36:04,VALID,1003.28,VALID,0,INVALID,163.693,VALID,0,VALID,24.5777,VALID,348,VALID,0.781641,
2011-06-05, 02:37:04,VALID,1003.26,VALID,0,INVALID,163.685,VALID,0,VALID,24.6185,VALID,357,VALID,0.474219,
2011-06-05, 02:38:04,VALID,1003.28,VALID,0,INVALID,163.701,VALID,0,VALID,24.6166,VALID,357,VALID,0.252344,
2011-06-05, 02:39:04,VALID,1003.28,VALID,0,INVALID,163.693,VALID,0,VALID,24.6185,VALID,357,VALID,0.340234,
2011-06-05, 02:40:04,VALID,1003.3,VALID,0,INVALID,163.701,VALID,0,VALID,24.6574,VALID,357,VALID,0.356641,
2011-06-05, 02:41:04,VALID,1003.32,VALID,0,INVALID,163.693,VALID,0,VALID,24.6574,VALID,357,VALID,0.0375,
2011-06-05, 02:42:04,VALID,1003.3,VALID,0,INVALID,163.701,VALID,0,VALID,24.6769,VALID,357,VALID,0.19375,
2011-06-05, 02:43:04,VALID,1003.32,VALID,0,INVALID,163.701,VALID,0,VALID,24.675,VALID,354,VALID,0.178516,
2011-06-05, 02:44:04,VALID,1003.36,VALID,0,INVALID,163.685,VALID,0,VALID,24.6945,VALID,354,VALID,0.310156,
2011-06-05, 02:45:04,VALID,1003.36,VALID,0,INVALID,163.678,VALID,0,VALID,24.7353,VALID,354,VALID,0.185156,
2011-06-05, 02:46:04,VALID,1003.37,VALID,0,INVALID,163.678,VALID,0,VALID,24.7548,VALID,354,VALID,0.171094,
2011-06-05, 02:47:04,VALID,1003.34,VALID,0,INVALID,163.662,VALID,0,VALID,24.8151,VALID,354,VALID,0.210547,
2011-06-05, 02:48:04,VALID,1003.33,VALID,0,INVALID,163.693,VALID,0,VALID,24.7724,VALID,354,VALID,0.242188,
2011-06-05, 02:49:04,VALID,1003.34,VALID,0,INVALID,163.693,VALID,0,VALID,24.7743,VALID,354,VALID,0.3875,
2011-06-05, 02:50:04,VALID,1003.31,VALID,0,INVALID,163.708,VALID,0,VALID,24.714,VALID,354,VALID,0.335547,
2011-06-05, 02:51:04,VALID,1003.3,VALID,0,INVALID,163.678,VALID,0,VALID,24.6945,VALID,354,VALID,0.396484,
2011-06-05, 02:52:04,VALID,1003.29,VALID,0,INVALID,163.67,VALID,0,VALID,24.6556,VALID,354,VALID,0.488281,
2011-06-05, 02:53:04,VALID,1003.29,VALID,0,INVALID,163.693,VALID,0,VALID,24.6556,VALID,354,VALID,0.157813,
2011-06-05, 02:54:04,VALID,1003.27,VALID,0,INVALID,163.701,VALID,0,VALID,24.6788,VALID,354,VALID,0,
2011-06-05, 02:55:04,VALID,1003.26,VALID,0,INVALID,163.701,VALID,0,VALID,24.6361,VALID,354,VALID,0,
2011-06-05, 02:56:04,VALID,1003.29,VALID,0,INVALID,163.716,VALID,0,VALID,24.6166,VALID,354,VALID,0,
2011-06-05, 02:57:04,VALID,1003.25,VALID,0,INVALID,163.701,VALID,0,VALID,24.6185,VALID,354,VALID,0,
2011-06-05, 02:58:04,VALID,1003.23,VALID,0,INVALID,163.701,VALID,0,VALID,24.599,VALID,354,VALID,0,
2011-06-05, 02:59:04,VALID,1003.23,VALID,0,INVALID,163.685,VALID,0,VALID,24.5777,VALID,354,VALID,0,
2011-06-05, 03:00:04,VALID,1003.23,VALID,0,INVALID,163.708,VALID,0,VALID,24.5388,VALID,354,VALID,0,
2011-06-05, 03:01:04,VALID,1003.24,VALID,0,INVALID,163.723,VALID,0,VALID,24.5406,VALID,354,VALID,0.494922,
2011-06-05, 03:02:04,VALID,1003.25,VALID,0,INVALID,163.701,VALID,0,VALID,24.4998,VALID,354,VALID,0.208984,
2011-06-05, 03:03:04,VALID,1003.23,VALID,0,INVALID,163.685,VALID,0,VALID,24.4609,VALID,354,VALID,0.303906,
2011-06-05, 03:04:04,VALID,1003.26,VALID,0,INVALID,163.708,VALID,0,VALID,24.422,VALID,354,VALID,0.0257812,
2011-06-05, 03:05:04,VALID,1003.28,VALID,0,INVALID,163.716,VALID,0,VALID,24.383,VALID,354,VALID,0.266797,
2011-06-05, 03:06:04,VALID,1003.22,VALID,0,INVALID,163.701,VALID,0,VALID,24.3636,VALID,354,VALID,0.200781,
2011-06-05, 03:07:04,VALID,1003.27,VALID,0,INVALID,163.716,VALID,0,VALID,24.3636,VALID,354,VALID,0.295312,
2011-06-05, 03:08:04,VALID,1003.24,VALID,0,INVALID,163.723,VALID,0,VALID,24.4043,VALID,354,VALID,0.421875,
2011-06-05, 03:09:04,VALID,1003.26,VALID,0,INVALID,163.708,VALID,0,VALID,24.3849,VALID,353,VALID,0.46875,
2011-06-05, 03:10:04,VALID,1003.27,VALID,0,INVALID,163.731,VALID,0,VALID,24.3654,VALID,355,VALID,0.553906,
2011-06-05, 03:11:04,VALID,1003.27,VALID,0,INVALID,163.678,VALID,0,VALID,24.3441,VALID,358,VALID,0.414453,
2011-06-05, 03:12:04,VALID,1003.26,VALID,0,INVALID,163.693,VALID,0,VALID,24.3246,VALID,358,VALID,0.333203,
2011-06-05, 03:13:04,VALID,1003.29,VALID,0,INVALID,163.708,VALID,0,VALID,24.3052,VALID,358,VALID,0.156641,
2011-06-05, 03:14:04,VALID,1003.32,VALID,0,INVALID,163.708,VALID,0,VALID,24.2857,VALID,358,VALID,0.186328,
2011-06-05, 03:15:04,VALID,1003.29,VALID,0,INVALID,163.716,VALID,0,VALID,24.3246,VALID,359,VALID,0.169922,
2011-06-05, 03:16:04,VALID,1003.31,VALID,0,INVALID,163.708,VALID,0,VALID,24.3441,VALID,359,VALID,0,
2011-06-05, 03:17:04,VALID,1003.32,VALID,0,INVALID,163.716,VALID,0,VALID,24.4043,VALID,359,VALID,0.0015625,
2011-06-05, 03:18:04,VALID,1003.29,VALID,0,INVALID,163.723,VALID,0,VALID,24.4025,VALID,359,VALID,0.266406,
2011-06-05, 03:19:04,VALID,1003.29,VALID,0,INVALID,163.693,VALID,0.100563,VALID,24.4609,VALID,359,VALID,0.176172,
2011-06-05, 03:20:04,VALID,1003.27,VALID,0,INVALID,163.731,VALID,0,VALID,24.4804,VALID,359,VALID,0.197656,
2011-06-05, 03:21:04,VALID,1003.29,VALID,0,INVALID,163.678,VALID,0,VALID,24.5406,VALID,359,VALID,0,
2011-06-05, 03:22:04,VALID,1003.26,VALID,0,INVALID,163.708,VALID,0,VALID,24.5193,VALID,359,VALID,0.241016,
2011-06-05, 03:23:04,VALID,1003.25,VALID,0,INVALID,163.701,VALID,0,VALID,24.5388,VALID,10,VALID,0.258203,
2011-06-05, 03:24:04,VALID,1003.26,VALID,0,INVALID,163.708,VALID,0,VALID,24.5777,VALID,10,VALID,0.347656,
2011-06-05, 03:25:04,VALID,1003.23,VALID,0,INVALID,163.67,VALID,0,VALID,24.6166,VALID,333,VALID,0.49375,
2011-06-05, 03:26:04,VALID,1003.21,VALID,0,INVALID,163.685,VALID,0,VALID,24.6769,VALID,299,VALID,0.383984,
2011-06-05, 03:27:04,VALID,1003.18,VALID,0,INVALID,163.67,VALID,0,VALID,24.6769,VALID,334,VALID,0.546484,
2011-06-05, 03:28:04,VALID,1003.18,VALID,0,INVALID,163.701,VALID,0,VALID,24.6769,VALID,334,VALID,0.317187,
2011-06-05, 03:29:04,VALID,1003.15,VALID,0,INVALID,163.693,VALID,0,VALID,24.6361,VALID,346,VALID,0.473828,
2011-06-05, 03:30:04,VALID,1003.18,VALID,0,INVALID,163.693,VALID,0,VALID,24.6166,VALID,351,VALID,0.520703,
2011-06-05, 03:31:04,VALID,1003.17,VALID,0,INVALID,163.701,VALID,0,VALID,24.5564,VALID,351,VALID,0.340234,
2011-06-05, 03:32:04,VALID,1003.17,VALID,0,INVALID,163.716,VALID,0,VALID,24.5388,VALID,351,VALID,0.264062,
2011-06-05, 03:33:04,VALID,1003.15,VALID,0,INVALID,163.693,VALID,0,VALID,24.5193,VALID,351,VALID,0.240625,
2011-06-05, 03:34:04,VALID,1003.16,VALID,0,INVALID,163.731,VALID,0,VALID,24.4804,VALID,351,VALID,0.339453,
2011-06-05, 03:35:04,VALID,1003.16,VALID,0,INVALID,163.716,VALID,0,VALID,24.4609,VALID,351,VALID,0.184766,
2011-06-05, 03:36:04,VALID,1003.16,VALID,0,INVALID,163.708,VALID,0,VALID,24.4609,VALID,351,VALID,0.378125,
2011-06-05, 03:37:04,VALID,1003.13,VALID,0,INVALID,163.693,VALID,0,VALID,24.4414,VALID,351,VALID,0.295703,
2011-06-05, 03:38:04,VALID,1003.14,VALID,0,INVALID,163.708,VALID,0,VALID,24.4609,VALID,351,VALID,0.350391,
2011-06-05, 03:39:04,VALID,1003.15,VALID,0,INVALID,163.739,VALID,0,VALID,24.4396,VALID,351,VALID,0.347656,
2011-06-05, 03:40:04,VALID,1003.14,VALID,0,INVALID,163.723,VALID,0,VALID,24.4998,VALID,351,VALID,0.314063,
2011-06-05, 03:41:04,VALID,1003.18,VALID,0,INVALID,163.723,VALID,0,VALID,24.5388,VALID,351,VALID,0.49375,